Terminal Aerodrome Forecast
Issued by NWS Green Bay, WI

Home | Current Version | Previous Version | Graphics & Text | Print | Product List | Glossary On
Versions: 1 2 3 4 5 6 7 8 9 10 11 12 13 14 15 16 17 18 19 20 21 22 23 24 25 26 27 28 29
961
FTUS43 KGRB 192145 AAA
TAFGRB
TAF AMD
KGRB 192145Z 1922/2018 13005KT P6SM SCT250
     FM200200 10005KT P6SM SCT250
     FM201100 10006KT 5SM BR BKN150
     FM201500 13008G14KT 4SM BR SCT012 BKN120=

USA.gov is the U.S. government's official web portal to all federal, state and local government web resources and services.